{"data":{"norad_id":62735,"epoch":"2026-09-21T07:33:43.703424Z","epoch_age_seconds":100845,"freshness":"FRESH","line1":"1 62735U 25014A   26264.31508916  .00011524  00000+0  42760-3 0  9992","line2":"2 62735  42.9983 129.7842 0000766 302.0576  58.0201 15.27581900 93179","mean_motion":15.275819,"eccentricity":7.66e-5,"inclination_deg":42.9983,"raan_deg":129.7842,"arg_perigee_deg":302.0576,"mean_anomaly_deg":58.0201,"bstar":0.0004276,"rev_number":9317,"period_min":94.266631465063,"perigee_km":482.51784034287,"apogee_km":483.56897318119,"semimajor_km":6861.180406762,"source":"CELESTRAK","updated_at":"2026-09-22T09:00:49.655710Z"}}